Terminal Aerodrome Forecast
Issued by NWS Green Bay, WI

Home | Current Version | Previous Version | Graphics & Text | Print | Product List | Glossary On
Versions: 1 2 3 4 5 6 7 8 9 10 11 12 13 14 15 16 17 18 19 20 21 22 23 24 25 26 27 28 29 30 31 32 33 34 35 36 37 38 39 40 41 42 43 44
000
FTUS43 KGRB 032320
TAFGRB
TAF
KGRB 032320Z 0400/0424 31009KT P6SM BKN035
     FM040900 29006KT P6SM SCT035
     FM041300 27005KT P6SM SCT040
     FM042200 21005KT P6SM BKN030=

USA.gov is the U.S. government's official web portal to all federal, state and local government web resources and services.